User: anonymous   Login
Location: Summit Observatory
(39.5293°N, 75.7290°W)
Time: 17:11:24
(UTC-05:00)
Language:

Gurwin Techsat 1B - Orbit

View from above orbital plane
View from above orbital plane
View from above satellite
View from above satellite

Ground track
Ground track

The orbit data is extracted from the following two-line orbital elements,

1 25397U 98043D   17017.78840138 -.00000004 +00000-0 +17121-4 0  9996
2 25397 098.5942 323.4283 0002385 082.0958 278.0492 14.23612972962174
Epoch (UTC): 17 January 2017 18:55:17
Eccentricity: 0.0002385
inclination: 98.5942°
perigee height: 811 km
apogee height: 815 km
right ascension of ascending node: 323.4283°
argument of perigee: 82.0958°
revolutions per day: 14.23612972
mean anomaly at epoch: 278.0492°
orbit number at epoch: 96217

The dashed part of the orbit path shows where the satellite is in the earth's shadow,  

DLR